Voltar ao catálogo

STARLINK-3111

AtivoComunicaçõesVLEO
NORAD 49418·PAYLOAD·🇺🇸 United States

Lançado Nov 13, 2021 de Cape Canaveral Space Force Station

Loading…

Próximas Passagens (próximas 24 horas)

TLE

AtualizadoSource: CelesTrak SupGP

Época: Sep 15, 2026, 02:47 UTC

1 49418C 21104L   26258.11645833 -.00015404  00000+0 -46747-3 0  2582
2 49418  53.1566  87.0116 0001256  87.2293  27.7856 15.33554038    15

Acompanhe STARLINK-3111 em tempo real com AllMySat

Download on the App Store